Regional Weather Roundup
Issued by NWS

Home | Current Version | Previous Version | Graphics & Text | Print | Product List | Glossary On
Versions: 1 2 3 4 5 6 7 8 9 10 11 12 13 14 15 16 17 18 19 20 21 22 23 24 25 26 27 28 29 30 31 32 33 34 35 36 37 38 39 40 41 42 43 44 45 46 47 48 49 50
000
ASUS45 KSLC 201910
RWRUT

UTAH REGIONAL WEATHER ROUNDUP
NATIONAL WEATHER SERVICE SALT LAKE CITY UT
1200 PM MST SAT DEC 20 2014

UTZ001>011-023>025-202000-

NORTHERN UTAH

CITY           SKY/WX    TMP DP  RH WIND       PRES   REMARKS
BRIGHAM CITY   CLOUDY    39  35  87 CALM      30.11F
HILL AFB       MIX PCPN  38  35  90 SW6       30.09F WCI  33
LOGAN          MIX PCPN  37  35  92 CALM      30.08F FOG
OGDEN          LGT RAIN  39  37  92 W6        30.09F WCI  35
PROVO AIRPORT  CLOUDY    39  34  81 CALM      30.12S
SALT LAKE CITY LGT RAIN  42  33  70 SW3       30.10F
VERNAL         CLOUDY    31  23  72 S5        30.14F WCI  26
WENDOVER       CLOUDY    37  30  75 E6        30.10F WCI  33
HEBER CITY     CLOUDY    36  32  87 CALM      30.08F
WEST JORDAN    CLOUDY    41  34  75 S13       30.10F

$$

UTZ012>022-026-027-202000-

SOUTHERN/CENTRAL UTAH

CITY           SKY/WX    TMP DP  RH WIND       PRES   REMARKS
BLANDING       CLOUDY    31  30  98 SE3       30.25F
BRYCE CANYON   CLOUDY    27  24  89 SE5       30.14F WCI  22
CEDAR CITY     CLOUDY    39  28  64 S15       30.12F WCI  31
DELTA          CLOUDY    40  29  65 SW5       30.12S
MILFORD        CLOUDY    40  28  62 S16       30.10F WCI  31
MOAB/CYNLANDS  CLOUDY    35  30  82 CALM      30.15F
PRICE          CLOUDY    32  24  72 CALM      30.16F
ST GEORGE      CLOUDY    43  30  61 CALM      30.21F

$$

REGIONAL REPORTS     COLORADO/ARIZONA

CITY           SKY/WX    TMP DP  RH WIND       PRES   REMARKS
CRAIG, CO      CLOUDY    31  24  75 E9        30.10F WCI  23
GRAND JUNCTION MOSUNNY   37  23  56 CALM      30.15F
RIFLE          CLOUDY    32  21  64 CALM      30.15F
MONTROSE       CLOUDY    34  21  59 CALM      30.16F
CORTEZ         SUNNY     39  25  57 CALM      30.15F
PAGE, AZ       CLOUDY    40  29  64 SW6       30.18F
GRAND CANYON   PTSUNNY   42  25  50 SW5       30.17F
KINGMAN        MOSUNNY   50  34  54 CALM      30.17F
FLAGSTAFF      MOSUNNY   42  25  50 SW6       30.17F

$$

REGIONAL REPORTS    NEVADA/IDAHO/WYOMING

CITY           SKY/WX    TMP DP  RH WIND       PRES   REMARKS
LAS VEGAS, NV  CLOUDY    51  38  60 CALM      30.13F
ELY            CLOUDY    37  29  72 SE6       30.11F WCI  32
ELKO           MIX PCPN  34  33  96 CALM      30.09S
POCATELLO, ID  CLOUDY    40  35  83 S13       30.05F WCI  32
BURLEY         LGT RAIN  39  34  82 S12       30.04F WCI  32
EVANSTON, WY   LGT SNOW  31  29  92 SW13      30.04F FOG     WCI  21
ROCK SPRINGS   CLOUDY    33  26  75 W12       30.04F WCI  24
KEMMERER       LGT SNOW  32  30  93 SW9       30.03F WCI  24

$$



USA.gov is the U.S. government's official web portal to all federal, state and local government web resources and services.